Cloud_Cover
42 84 5 5 48 43 27 5 5 0 2 6 5 5 63 36 18 71 44 4 0 0 1 2 5 5 5 4 0 0 0 0 0 0 0 0 0 0 0 0 56 14 5 0 0
4 13 5 5 7 12 9 3 0 0 0 0 0 0 2 12 11 5 5 0 0 0 0 0 1 0 1 0 0 0 0 0 0 0 0 0 0 0 0 0 0 3 4 0 0
2 5 43 49 18 2 0 0 0 0 0 0 2 0 0 0 0 4 4 5 5 4 0 0 0 0 0 0 0 0 0 0 0 0 0 0 0 0 0 2 0 0 0 0 0
5 5 30 60 100 51 6 5 5 5 5 5 5 2 0 0 3 5 38 16 7 5 0 0 0 0 0 0 0 0 0 0 0 0 0 0 0 0 0 4 0 0 0 0 0
5 23 77 74 74 68 25 5 5 5 5 5 5 5 5 5 5 83 84 100 96 66 46 5 2 0 0 1 0 5 4 5 5 0 0 5 0 2 0 0 5 2 0 0 0
5 5 6 68 41 64 53 5 5 5 70 59 44 52 53 6 7 33 90 100 100 100 52 68 97 4 6 5 8 25 35 9 5 0 0 0 0 5 5 21 23 5 0 0 0
5 10 33 5 11 77 69 72 5 47 42 99 100 89 100 100 100 100 80 7 12 10 5 5 33 100 100 100 100 84 81 63 5 5 5 5 4 0 0 5 5 3 5 1 0
100 100 100 100 98 14 5 5 12 64 27 5 5 22 66 32 29 42 39 5 5 3 5 5 9 75 100 100 100 100 13 96 100 5 5 32 84 83 6 0 53 5 4 1 5
100 100 100 100 7 6 5 5 5 4 5 7 5 5 41 83 5 5 5 5 5 4 5 5 3 14 34 62 100 100 97 98 82 99 85 46 48 96 99 25 1 0 0 4 5
100 96 96 100 96 82 26 6 6 5 4 5 5 5 5 5 5 5 15 5 5 5 5 5 5 5 5 5 10 51 65 84 100 100 100 100 100 100 18 98 98 27 2 0 0
100 100 76 94 100 100 60 68 58 34 57 14 24 5 5 6 5 10 21 5 5 5 5 5 5 5 4 5 5 60 85 97 71 5 6 99 100 100 100 100 82 100 100 100 84
97 100 100 100 100 50 51 58 61 17 33 17 6 9 64 30 43 13 23 8 16 5 5 5 5 5 5 5 83 62 45 48 53 12 30 100 100 100 100 100 100 100 100 100 100
100 100 100 100 100 100 100 100 97 32 44 88 91 44 10 16 10 65 56 54 68 68 21 6 5 5 5 5 5 30 6 53 9 44 71 51 41 100 100 100 100 100 100 100 100
100 98 98 60 63 86 76 96 98 85 20 60 46 9 5 6 50 79 100 81 64 78 63 36 6 5 5 5 5 14 36 33 8 5 3 5 71 100 100 100 100 100 100 100 100
100 100 100 93 5 94 70 92 29 76 51 18 97 91 93 100 86 34 37 6 38 10 34 98 98 81 23 9 5 41 6 5 6 86 99 74 4 99 13 20 93 60 5 73 96
100 100 100 100 74 95 100 98 99 84 90 19 5 5 7 71 99 100 100 97 93 94 68 70 41 16 46 18 27 20 26 8 10 59 21 50 17 100 77 5 5 28 94 48 23
100 100 100 100 91 100 100 100 100 100 46 36 54 5 5 16 44 87 99 77 100 76 27 54 75 71 73 85 86 89 69 95 28 26 49 58 37 95 43 7 14 7 4 14 74
100 100 100 100 100 100 100 100 100 56 83 96 81 6 52 95 48 65 28 52 9 92 73 67 13 34 19 5 7 7 81 48 37 6 8 18 11 10 7 93 97 54 21 7 16
100 100 100 100 100 100 100 100 100 100 99 100 90 99 88 96 98 100 87 77 87 56 100 95 50 45 9 7 18 13 66 40 72 78 33 5 38 100 100 100 100 100 99 96 100
100 100 100 100 100 100 100 100 100 99 100 100 82 70 99 100 90 94 95 75 100 84 94 72 89 75 47 54 100 100 84 95 100 100 100 100 100 100 100 100 100 100 84 24 5
100 100 100 100 100 100 100 100 99 97 98 100 93 97 92 100 94 63 51 17 46 64 100 100 84 76 36 93 100 97 9 26 84 100 100 98 6 80 100 100 60 60 12 79 87
100 100 98 100 100 100 100 100 100 100 100 74 54 100 97 100 96 87 37 45 42 57 78 76 100 100 100 100 100 100 100 76 98 100 100 96 19 100 48 15 73 6 5 5 7
100 100 100 100 100 100 100 100 100 98 100 100 100 100 100 100 100 100 100 62 76 61 92 100 100 100 92 98 100 100 100 100 100 100 80 100 99 100 100 100 100 35 1 0 0
100 100 100 100 100 100 100 100 98 98 85 93 100 100 100 100 99 77 100 100 100 98 100 100 100 80 70 100 100 100 100 100 100 100 100 100 100 100 100 99 34 5 4 0 0
100 100 100 100 100 100 100 75 96 82 100 99 100 100 100 100 100 100 100 100 100 100 100 96 100 100 100 100 100 100 100 100 100 100 100 100 100 100 100 44 14 1 0 1 5
100 100 100 100 100 100 100 100 100 100 100 100 97 100 100 100 100 100 100 100 100 100 100 100 100 100 100 100 100 100 100 100 100 100 100 100 100 87 0 0 0 0 0 5 5
100 100 100 100 100 100 100 100 100 100 100 100 100 100 100 100 100 100 100 100 100 100 100 100 100 100 100 100 100 82 100 100 100 100 100 33 0 1 0 0 0 1 2 5 5